Location: Ettringen
(48.1054°N, 10.6545°E)
Time: 21:29:59
(UTC+00:00)

Landsat 7 - Pass Details

Date: 18 November 2025
Orbit: 680 x 682 km, 97.9° (Epoch: 05 December)

Event Time Altitude Azimuth Distance (km) Brightness Sun altitude
Rises 16:46:44 0° 164° (SSE) 3,030 7.1 -11.7°
Reaches altitude 10° 16:48:57 10° 164° (SSE) 2,119 6.3 -12.1°
Maximum altitude 16:53:36 89° 79° (E) 689 3.7 -12.8°
Drops below altitude 10° 16:58:17 10° 347° (NNW) 2,134 6.3 -13.6°
Sets 17:00:32 0° 347° (NNW) 3,054 7.1 -14.0°
